FENGYUN 1C DEB, 31217

Orbit data source: Space-Track

FENGYUN 1C DEB, 31217 is space debris in SSO originally from a launch on Mon, 10 May 1999 UTC launched from the Taiyaun Space Center, China (TSC). Fengyun 1C debris stems from the Chinese weather satellite Fengyun-1C, which was intentionally destroyed by a Chinese anti-satellite missile in 2007. This event dramatically increased the amount of space debris, with thousands of trackable fragments posing hazards to satellites and human spaceflight. The Fengyun 1C debris cloud has become a focal point in discussions about space sustainability and the need for international regulations to prevent the creation of new debris.

Loading next visibility...
Identifier
31217, 1999-025BKX
Orbit
SSO
Country
Flag of CNCN / PRC
Related business
Manufacturer
Unknown
Mission
Spacecraft
Bus & Motor
Unknown
Mass
Unknown
Launch date (UTC)
1999-05-10 (27 years ago)
Launch vehicle
Unknown
Launch site
Taiyaun Space Center, China (TSC)
Object type
Payload
Rocket body
Debris
Shape & HBR
Unknown shape, 0.1 m
Radar Cross Section
Medium (>0.1 m² and <1 m²)

Expand to show TLE details & history
Last TLE update: 2 days ago

TLE from 2 days ago
0 FENGYUN 1C DEB
1 31217U 99025BKX 26252.28533590  .00000705  00000-0  34595-3 0  9992
2 31217  98.6407 257.9457 0099726 101.8870 259.3509 14.18179292  1500
Epoch: 2026-09-09T06:50Z
TLE epoch observation values (Epoch: 2026-09-09T06:50:53.021Z)
Latitude
-0.00003°
Longitude
166.88519°
Altitude
848.412 km
Speed
7.421 km/s
True Right ascension
17h 11m 46s
True Declination
0° 00' 00"
Sunlit
Object was in daylight at epoch
Visualization orbit readout
Latitude
Unknown
Longitude
Unknown
Altitude
Unknown
Speed
Unknown
Apparent Right ascension
Unknown
Apparent Declination
Unknown
Sunlit
N/A
Visualization observer readout
Local Sidereal Time
00:39:59
Azimuth
Unknown
Elevation
Unknown
Doppler factor
Unknown
Orbital elements
Apogee altitude
900.545 km
Perigee altitude
756.804 km
Semi-major axis
7,206.811 km
Eccentricity
0.00997
Inclination
98.6407°
RAAN
257.9457°
Arg. of periapsis
101.887°
True anomaly
258.23046°
Mean anomaly
259.3509°
Eccentric anomaly
258.79041°
Mean motion
3.54755 °/min
Orbital period
101.48 mins
BSTAR
0.00034595
Loading maneuver chart data...
Computing Atmospheric mass density...

Documentation

Showing up to 5 results
|